Flag for Poland

Past Weather in 54°21'26.2"N, 18°40'21.4"E, Poland — Yesterday and Last 2 Weeks

Currently: 32 °F. Passing clouds. (Weather station: Gdansk-Rebiechowo, Poland). See more current weather

Past Weather in 54°21'26.2"N, 18°40'21.4"E — Graph

°F

54°21'26.2"N, 18°40'21.4"E Temperature Yesterday

Maximum temperature yesterday: 37 °F (at 12:00 pm)
Minimum temperature yesterday: 32 °F (at 12:00 am)
Average temperature yesterday: 34 °F

High & Low Weather Summary for the Past Weeks

 TemperatureHumidityPressure
High54 °F (Nov 19, 1:00 pm)100% (Nov 15, 11:30 pm)30.45 "Hg (Nov 15, 11:30 pm)
Low28 °F (Nov 30, 3:30 am)65% (Nov 25, 1:00 pm)29.09 "Hg (Nov 30, 2:00 pm)
Average39 °F90%29.78 "Hg
* Reported Nov 15 7:00 pm — Nov 30 7:00 pm, 54°21'26.2"N, 18°40'21.4"E. Weather by CustomWeather, © 2021

Note: Actual official high and low records may vary slightly from our data, if they occured in-between our weather recording intervals... More about our weather records

54°21'26.2"N, 18°40'21.4"E Weather History for the Previous 24 Hours

Scroll right to see more
 ConditionsComfort  
Time TempWeatherWind HumidityBarometerVisibility
7:00 pm
Tue, Nov 30
30 °FPassing clouds.9 mph100%29.15 "Hg5 mi
6:30 pm30 °FIce fog.5 mph100%29.12 "Hg3 mi
6:00 pm32 °FIce fog.5 mph93%29.12 "Hg2 mi
5:30 pm30 °FIce fog.1 mph100%29.09 "Hg2 mi
5:00 pm32 °FLight snow. Ice fog.1 mph93%29.09 "Hg1 mi
4:30 pm32 °FLight snow. Ice fog.3 mph93%29.09 "Hg1 mi
4:00 pm32 °FLight snow. Ice fog.5 mph93%29.09 "Hg1 mi
3:30 pm32 °FLight snow. Ice fog.6 mph93%29.09 "Hg1 mi
3:00 pm32 °FSnow. Ice fog.7 mph93%29.09 "Hg1 mi
2:30 pm32 °FSnow. Ice fog.9 mph93%29.09 "Hg1 mi
2:00 pm32 °FLight snow. Ice fog.9 mph93%29.09 "Hg1 mi
1:30 pm32 °FSnow. Ice fog.12 mph93%29.12 "Hg1 mi
1:00 pm30 °FSnow. Ice fog.13 mph100%29.15 "Hg1 mi
12:30 pm30 °FHeavy snow. Partly sunny.13 mph100%29.18 "Hg1 mi
12:00 pm30 °FSnow. Partly sunny.10 mph93%29.21 "Hg1 mi
11:30 am30 °FSnow. Partly sunny.9 mph93%29.24 "Hg1 mi
11:00 am32 °FSnow. Partly sunny.8 mph87%29.27 "Hg2 mi
10:30 am32 °FPartly sunny.10 mph87%29.30 "HgN/A
10:00 am30 °FPartly sunny.10 mph93%29.33 "HgN/A
9:30 am30 °FPartly sunny.10 mph86%29.33 "HgN/A
9:00 am30 °FPassing clouds.9 mph86%29.36 "HgN/A
8:30 am32 °FScattered clouds.12 mph87%29.39 "HgN/A
8:00 am30 °FBroken clouds.9 mph93%29.39 "HgN/A
7:30 am30 °FPassing clouds.9 mph86%29.42 "HgN/A
7:00 am28 °FClear.7 mph93%29.42 "Hg10 mi
6:30 am28 °FClear.6 mph93%29.42 "Hg10 mi
6:00 am28 °FPassing clouds.7 mph93%29.45 "HgN/A
5:30 am30 °FPassing clouds.8 mph80%29.45 "HgN/A
5:00 am28 °FClear.8 mph86%29.45 "Hg10 mi
4:30 am30 °FClear.9 mph80%29.47 "Hg10 mi
4:00 am30 °FClear.10 mph80%29.47 "Hg10 mi
3:30 am28 °FClear.10 mph86%29.47 "Hg10 mi
3:00 am30 °FClear.9 mph86%29.47 "Hg10 mi
2:30 am30 °FClear.9 mph86%29.47 "Hg10 mi
2:00 am30 °FPassing clouds.13 mph86%29.50 "HgN/A
1:30 am32 °FPassing clouds.14 mph87%29.47 "HgN/A
1:00 am32 °FPassing clouds.15 mph93%29.47 "HgN/A
12:30 am32 °FSnow flurries. Passing clouds.16 mph93%29.47 "Hg2 mi
12:00 am32 °FSnow showers. Partly cloudy.16 mph93%29.47 "Hg1 mi
11:30 pm
Mon, Nov 29
32 °FPassing clouds.14 mph87%29.47 "HgN/A
11:00 pm32 °FPassing clouds.13 mph87%29.47 "HgN/A
10:30 pm32 °FPartly cloudy.10 mph93%29.47 "HgN/A
10:00 pm32 °FPassing clouds.13 mph93%29.47 "HgN/A
9:30 pm34 °FPassing clouds.16 mph87%29.45 "HgN/A
9:00 pm34 °FSnow flurries. Partly cloudy.14 mph93%29.45 "Hg3 mi
8:30 pm32 °FSnow showers. Partly cloudy.18 mph100%29.45 "Hg1 mi
8:00 pm34 °FSnow flurries. Partly cloudy.16 mph93%29.45 "HgN/A
Weather by CustomWeather, © 2021

See weather overview